Home > Weather > Murmansk > Past weeks

Flag for Russia Past Weather in Murmansk, Russia — Yesterday and Last 2 Weeks

Now
72 °F

Passing clouds.


Feels Like: 77 °F
Forecast: 54 / 74 °F
Wind: 3 mph from Northwest

Location: Murmansk Airport

Current Time: Jul 24, 2016 at 11:48:45 AM

Latest Report: Jul 24, 2016 at 11:00 AM


Visibility: N/A

Pressure: 30.09 "Hg

Humidity: 50%

Dew Point: 52 °F

Location of MurmanskLocation

Past Weather in Murmansk — Graph

°F

Murmansk Temperature Yesterday

Maximum temperature yesterday: 81 °F (at 2:00 PM)
Minimum temperature yesterday: 52 °F (at 2:30 AM)
Average temperature yesterday: 71 °F

High & Low Weather Summary for the Past Weeks

 TemperatureHumidityPressure
High81 °F (Jul 22, 5:00 PM)94% (Jul 9, 3:30 PM)30.21 "Hg (Jul 9, 3:30 PM)
Low45 °F (Jul 21, 2:30 AM)23% (Jul 22, 5:00 PM)29.42 "Hg (Jul 9, 10:00 AM)
Average61 °F68%29.78 "Hg
* Reported Jul 9 10:00 AM — Jul 24 10:00 AM, Murmansk, Weather by CustomWeather, © 2016

Note: Actual official high and low records may vary slightly from our data, if they occured in-between our weather recording intervals... More about our weather records

Advertising

Murmansk Weather History for the Previous 24 Hours

Scroll right to see more
 ConditionsComfort  
Time TempWeatherWind HumidityBarometerVisibility
10:00 AM
Sun, Jul 24
70 °FSunny.1 mph53%30.09 "Hg10 mi
9:30 AM66 °FPassing clouds.1 mph60%30.09 "HgN/A
9:00 AM66 °FPassing clouds.1 mph60%30.09 "HgN/A
8:30 AM66 °FScattered clouds.1 mph56%30.12 "HgN/A
8:00 AM66 °FScattered clouds.3 mph52%30.12 "HgN/A
7:30 AM64 °FScattered clouds.3 mph60%30.12 "HgN/A
7:00 AM63 °FScattered clouds.1 mph64%30.12 "HgN/A
6:30 AM63 °FScattered clouds.1 mph68%30.12 "HgN/A
6:00 AM61 °FScattered clouds.No wind68%30.12 "HgN/A
5:30 AM61 °FScattered clouds.1 mph63%30.12 "HgN/A
5:00 AM59 °FScattered clouds.1 mph72%30.12 "HgN/A
4:30 AM59 °FScattered clouds.1 mph68%30.12 "HgN/A
4:00 AM61 °FScattered clouds.1 mph68%30.12 "HgN/A
3:30 AM61 °FScattered clouds.3 mph63%30.12 "HgN/A
3:00 AM61 °FScattered clouds.1 mph59%30.12 "HgN/A
2:30 AM63 °FScattered clouds.No wind56%30.12 "HgN/A
2:00 AM64 °FScattered clouds.3 mph49%30.12 "HgN/A
1:30 AM64 °FClear.3 mph46%30.12 "Hg10 mi
1:00 AM66 °FClear.3 mph43%30.12 "Hg10 mi
12:30 AM64 °FClear.1 mph52%30.12 "Hg10 mi
12:00 AM68 °FClear.1 mph38%30.12 "Hg10 mi
11:30 PM
Sat, Jul 23
70 °FSunny.6 mph38%30.12 "Hg10 mi
11:00 PM70 °FSunny.6 mph40%30.12 "Hg10 mi
10:30 PM70 °FSunny.3 mph40%30.12 "Hg10 mi
10:00 PM70 °FSunny.3 mph40%30.12 "Hg10 mi
9:30 PM72 °FSunny.3 mph38%30.12 "Hg10 mi
9:00 PM73 °FSunny.3 mph36%30.12 "Hg10 mi
8:30 PM75 °FSunny.3 mph34%30.12 "Hg10 mi
8:00 PM77 °FSunny.6 mph30%30.12 "Hg10 mi
7:30 PM79 °FPassing clouds.6 mph28%30.12 "HgN/A
7:00 PM79 °FSunny.6 mph28%30.12 "Hg10 mi
6:30 PM77 °FSunny.6 mph32%30.12 "Hg10 mi
6:00 PM79 °FSunny.8 mph28%30.12 "Hg10 mi
5:30 PM79 °FSunny.6 mph28%30.12 "Hg10 mi
5:00 PM81 °FPassing clouds.6 mph26%30.12 "HgN/A
4:30 PM79 °FSunny.8 mph28%30.12 "Hg10 mi
4:00 PM81 °FSunny.6 mph26%30.15 "Hg10 mi
3:30 PM81 °FPassing clouds.6 mph26%30.15 "HgN/A
3:00 PM79 °FPassing clouds.6 mph28%30.15 "HgN/A
2:30 PM81 °FPassing clouds.6 mph26%30.15 "HgN/A
2:00 PM81 °FSunny.3 mph28%30.15 "Hg10 mi
1:30 PM79 °FPassing clouds.6 mph28%30.15 "HgN/A
1:00 PM79 °FPassing clouds.6 mph30%30.18 "HgN/A
12:30 PM79 °FSunny.3 mph30%30.18 "Hg10 mi
12:00 PM77 °FSunny.3 mph30%30.18 "Hg10 mi
11:30 AM77 °FPassing clouds.6 mph30%30.18 "HgN/A
11:00 AM77 °FPassing clouds.6 mph30%30.18 "HgN/A
Weather by CustomWeather, © 2016

See weather overviewHow to use our weather pages